Flag for Ireland Weather past 2 weeks in Dublin, Ireland

54 °F

Broken clouds.

Feels Like: 49 °F
Forecast: 50 / 56 °F
Wind: 14 mph from Southwest

Location: Dublin Airport

Current Time: Nov 26, 2015 at 1:08:06 PM

Latest Report: Nov 26, 2015 at 12:30 PM

Visibility: N/A

Pressure: 30.12 "Hg

Humidity: 94%

Dew point: 52 °F

Location of DublinLocation

Historic Weather in Dublin — Graph


Dublin temperature yesterday

Maximum temperature yesterday: 50 °F (at 10:30 AM)
Minimum temperature yesterday: 45 °F (at 7:00 PM)
Average temperature yesterday: 48 °F

Past Weeks' High & Low Weather Summary

High61 °F (Nov 12, 1:30 PM)100% (Nov 14, 8:30 AM)30.24 "Hg (Nov 14, 8:30 AM)
Low30 °F (Nov 22, 9:00 PM)59% (Nov 12, 10:00 AM)29.06 "Hg (Nov 17, 4:30 PM)
Average46 °F86%29.83 "Hg
* Reported Nov 11 12:00 Noon — Nov 26 12:00 Noon, Dublin, Weather by CustomWeather, © 2015

Note: Actual official high and low records may vary slightly from our data, if they occured in-between our weather recording intervals... More about our weather records


Dublin weather history for previous 24 hours

Time TempWeatherWind HumidityBarometerVisibility
12:00 PM
Thu, Nov 26
54 °FBroken clouds.15 mph94%30.12 "HgN/A
11:30 AM52 °FDrizzle. Broken clouds.13 mph100%30.15 "Hg4 mi
11:00 AM52 °FPartly sunny.12 mph94%30.15 "HgN/A
10:30 AM52 °FBroken clouds.13 mph94%30.15 "HgN/A
10:00 AM52 °FBroken clouds.15 mph94%30.15 "HgN/A
9:30 AM52 °FBroken clouds.13 mph94%30.15 "HgN/A
9:00 AM50 °FBroken clouds.15 mph100%30.15 "HgN/A
8:30 AM52 °FPartly sunny.14 mph94%30.15 "HgN/A
8:00 AM50 °FPassing clouds.12 mph100%30.12 "Hg6 mi
7:30 AM52 °FPassing clouds.13 mph94%30.12 "HgN/A
7:00 AM52 °FPassing clouds.13 mph94%30.12 "HgN/A
6:30 AM50 °FPassing clouds.12 mph100%30.12 "HgN/A
6:00 AM50 °FPassing clouds.12 mph100%30.12 "HgN/A
5:30 AM50 °FPassing clouds.13 mph94%30.12 "Hg5 mi
5:00 AM50 °FPassing clouds.10 mph94%30.12 "HgN/A
4:30 AM50 °FPassing clouds.10 mph94%30.12 "HgN/A
4:00 AM50 °FPassing clouds.12 mph94%30.12 "HgN/A
3:00 AM50 °FPassing clouds.13 mph94%30.12 "HgN/A
2:30 AM50 °FPassing clouds.14 mph94%30.12 "Hg5 mi
2:00 AM50 °FPassing clouds.16 mph94%30.09 "HgN/A
1:30 AM50 °FPassing clouds.15 mph94%30.09 "HgN/A
1:00 AM50 °FPassing clouds.13 mph94%30.12 "HgN/A
12:30 AM50 °FPassing clouds.15 mph94%30.09 "HgN/A
12:00 AM50 °FPassing clouds.15 mph94%30.09 "HgN/A
11:00 PM
Wed, Nov 25
48 °FPassing clouds.15 mph94%30.09 "HgN/A
10:30 PM48 °FPassing clouds.14 mph94%30.09 "HgN/A
10:00 PM48 °FPassing clouds.13 mph87%30.12 "HgN/A
9:30 PM46 °FPartly cloudy.13 mph93%30.09 "HgN/A
9:00 PM46 °FPartly cloudy.10 mph87%30.12 "HgN/A
8:30 PM46 °FPassing clouds.12 mph87%30.12 "HgN/A
8:00 PM46 °FPassing clouds.15 mph87%30.09 "HgN/A
7:30 PM46 °FPassing clouds.12 mph87%30.12 "HgN/A
7:00 PM45 °FPassing clouds.12 mph93%30.09 "HgN/A
6:30 PM46 °FPassing clouds.14 mph87%30.09 "HgN/A
6:00 PM46 °FPassing clouds.15 mph87%30.09 "HgN/A
5:30 PM48 °FPartly cloudy.16 mph82%30.07 "HgN/A
5:00 PM48 °FPartly cloudy.16 mph82%30.07 "HgN/A
4:30 PM48 °FPartly cloudy.14 mph82%30.07 "HgN/A
4:00 PM48 °FBroken clouds.12 mph82%30.07 "HgN/A
3:30 PM48 °FBroken clouds.16 mph87%30.07 "HgN/A
3:00 PM50 °FBroken clouds.22 mph82%30.04 "HgN/A
2:30 PM50 °FBroken clouds.21 mph82%30.04 "HgN/A
2:00 PM50 °FBroken clouds.17 mph88%30.04 "HgN/A
1:30 PM50 °FDrizzle. Broken clouds.20 mph88%30.04 "HgN/A
1:00 PM50 °FDrizzle. Broken clouds.26 mph94%30.01 "Hg4 mi
Weather by CustomWeather, © 2015

See weather overviewHow to use our weather pages